COSMOS 2228

Last updated on Mon Sep 21 2026 00:02:08 GMT+0000 (Coordinated Universal Time)

1 22286U 92094A 26263.55898420 .00001246 00000+0 10339-3 0 9995 2 22286 82.5169 50.6499 0017889 10.2679 349.8905 14.97839344805221
UTC large
Height (km)
Speed (km/s)
/
Latitude / Longitude
Inclination (degrees)
Orbital Period (minutes)
Azimuth
Elevation
Range (km)
Doppler Factor

Next 0 passes for location: London (51.5072 / 0.1276)

No passes found over London.
COSMOS 2228